7 * 24
多渠道服务支持
STARLINK-11262 是 SpaceX Starlink 项目中的一颗低轨通信卫星,属于第 56 批 Starlink 卫星任务(56th Starlink Mission)。该卫星于 2023 年 11 月发射,旨在为全球提供高速互联网服务。它运行在约 550 公里的轨道高度,采用先进的推进系统和激光通信技术,以提高网络效率和减少延迟。Starlink 项目致力于构建一个覆盖全球的卫星互联网网络,特别服务于偏远和网络基础设施薄弱的地区。
美国
(US)
| 数据来源 | 国际轨道数据 |
| 星历时间: | 2025-12-15T05:31:25+0800 21小时前 查看轨道信息 |
| 半长轴: | 6737.764km |
| 偏心率: | 0.0001502 |
| 轨道倾角: | 53.157° |
| 近地点辐角 | 140.850° |
| 升交点赤经 | 99.547° |
| 平近点角 | 219.263° |
| 近地点: | 358.616km |
| 远地点: | 360.642km |
| 周期: | 91.735分钟 |
| 每日圈数: | 15.69745 |